Hourly Weather Roundup
Issued by NWS Central Illinois

Home | Current Version | Previous Version | Text Only | Print | Product List | Glossary On
Versions: 1 2 3 4 5 6 7 8 9 10 11 12 13 14 15 16 17 18 19 20 21 22 23 24 25 26 27 28 29 30 31 32 33 34 35 36 37 38 39 40 41 42 43 44 45 46 47 48 49 50
000
NZUS43 KILX 032210
HWRILX

AREA WEATHER ROUNDUP
NATIONAL WEATHER SERVICE, LINCOLN IL
500 PM CDT SUN MAY 03 2015


CITY           SKY/WX    TMP DP  RH WIND       PRES   REMARKS
BLOOMINGTON    PTSUNNY   82  49  31 SW21G29   29.92F HX  80
CHAMPAIGN      PTSUNNY   84  42  22 S24G30    29.95F HX  81
DANVILLE       PTSUNNY   79  45  29 S18G25    29.94F
DECATUR        SUNNY     81  48  31 S21G26    29.94F HX  80
EFFINGHAM      SUNNY     80  38  23 S12G20    30.00S
FLORA          SUNNY     79  43  27 SW17G23   30.00F
GALESBURG      MOSUNNY   80  56  42 SW18      29.87S HX  80
JACKSONVILLE   MOSUNNY   86  50  28 S15G25    29.90F HX  83
LACON          PTSUNNY   81  50  34 SW10G16   29.87S HX  80
LAWRENCEVILLE  SUNNY     80  45  28 S17       30.01
LITCHFIELD     MOSUNNY   80  45  28 S18G26    29.95S
$$


CITY           SKY/WX    TMP DP  RH WIND       PRES   REMARKS
LINCOLN        SUNNY     84  47  27 S16G23    29.89S HX  82
MACOMB         PTSUNNY   84  52  32 SW18G26   29.89S HX  82
MATTOON        MOSUNNY   78  45  30 S14G25    29.97F
MT CARMEL AP   SUNNY     82  32  16 SW14G21   30.01S HX  80
OLNEY-NOBLE AP SUNNY     79  43  27 S12G18    30.00F
PARIS          PTSUNNY   79  45  29 S15       29.99F
PEORIA         MOSUNNY   85  51  31 SW17      29.88S HX  83
PONTIAC        PTSUNNY   83  48  29 S20G26    29.91S HX  81
RANTOUL        PTSUNNY   83  43  24 S18G26    29.95S HX  80
ROBINSON       SUNNY     81  44  27 S14G21    30.01F
SPRINGFIELD    SUNNY     84  49  29 S17G33    29.91F HX  82
TAYLORVILLE    SUNNY     81  46  30 S18G26    29.94F HX  80
$$

...REGIONAL REPORTS...


CITY           SKY/WX    TMP DP  RH WIND       PRES   REMARKS
CHICAGO O`HARE CLOUDY    77  46  33 SW12      29.89F
KANKAKEE       PTSUNNY   81  47  30 S16G24    29.93F HX  80
MOLINE         MOSUNNY   83  55  38 SW20G25   29.83F HX  82
MOUNT VERNON   SUNNY    N/A N/A N/A S16G22    30.01S
PITTSFIELD     MOSUNNY   83  51  32 SW14G23   29.91S HX  82
QUINCY         PTSUNNY   82  55  39 S17G24    29.88F HX  81
ROCKFORD       TSTM      61  58  90 NE5       29.96S FOG
$$


CITY           SKY/WX    TMP DP  RH WIND       PRES   REMARKS
BURLINGTON     MOSUNNY   82  56  40 S18G25    29.85F HX  82
CEDAR RAPIDS   MOSUNNY   82  59  45 S12G23    29.81F HX  82
DES MOINES     PTSUNNY   83  57  41 SW14G24   29.77F HX  82
KIRKSVILLE     PTSUNNY   81  58  45 S17G30    29.86S HX  81
OTTUMWA        SUNNY     82  57  42 SW20G28   29.81S HX  82
ST LOUIS       PTSUNNY   84  47  27 S17G23    29.94F HX  82
$$


CITY           SKY/WX    TMP DP  RH WIND       PRES   REMARKS
TERRE HAUTE    MOSUNNY   77  47  34 S13       30.01S
EVANSVILLE     SUNNY     79  48  33 SW16G22   30.04S
INDIANAPOLIS   MOSUNNY   78  46  32 S10       30.00F
LAFAYETTE      MOSUNNY   78  46  32 S7G18     29.97F
MADISON        PTSUNNY   72  54  53 S15       29.88S
MILWAUKEE      CLOUDY    71  52  50 W8        29.91R
$$




USA.gov is the U.S. government's official web portal to all federal, state and local government web resources and services.